Date String (YYYY-MM-DD hh:mm:ss) UTC,Instrument flags,Ambient pressure (hPa),Sample flow (lpm),Bypass flow (lpm),Sample temperature (°C),Ambient temperature (°C),ASC tube jacket temperature (°C),LED temperature (°C),Box temperature (°C),Sample RH (%),Span deviation,Mass concentration (μg/m³),Mass concentration (μg/m³),Mass concentration (μg/m³)
DateTimeUTC,F1_M11,P_M11,Q1_M11,Q2_M11,T1_M11,T2_M11,T3_M11,T4_M11,T5_M11,U1_M11,ZSPAN_M11,X0_M11,X2_M11,X1_M11
2023-02-01 20:00:00,,0824.9,5.01,0.00,25.5,24.3,00.0,34.3,27.3,07.1,0000.0,0008.42,0004.20,0003.63
2023-02-01 20:01:00,,0824.8,5.00,0.00,25.5,24.3,00.0,34.3,27.3,07.2,0000.0,0008.34,0004.15,0003.62
2023-02-01 20:02:00,,0824.8,5.01,0.00,25.5,24.3,00.0,34.3,27.3,07.4,0000.0,0008.66,0004.19,0003.65
2023-02-01 20:03:00,,0824.8,5.04,0.00,25.5,24.3,00.0,34.3,27.3,07.2,0000.0,0008.87,0004.23,0003.67
2023-02-01 20:04:00,,0824.8,5.00,0.00,25.5,24.3,00.0,34.3,27.3,07.5,0000.0,0009.06,0004.24,0003.69
2023-02-01 20:05:00,,0824.8,4.99,0.00,25.6,24.3,00.0,34.3,27.3,07.3,0000.0,0009.57,0004.24,0003.67
2023-02-01 20:06:00,,0824.8,5.00,0.00,25.6,24.3,00.0,34.3,27.3,07.2,0000.0,0009.61,0004.27,0003.68
2023-02-01 20:07:00,,0824.8,5.01,0.00,25.6,24.3,00.0,34.3,27.3,07.1,0000.0,0009.77,0004.24,0003.68
2023-02-01 20:08:00,,0824.8,4.99,0.00,25.6,24.3,00.0,34.3,27.4,07.4,0000.0,0009.59,0004.24,0003.69
2023-02-01 20:09:00,,0824.8,4.98,0.00,25.6,24.3,00.0,34.3,27.3,07.4,0000.0,0009.06,0004.26,0003.73
2023-02-01 20:10:00,,0824.8,5.04,0.00,25.6,24.4,00.0,34.3,27.3,07.6,0000.0,0009.91,0004.37,0003.79
2023-02-01 20:11:00,,0824.7,4.96,0.00,25.6,24.4,00.0,34.4,27.4,07.1,0000.0,0010.43,0004.45,0003.85
2023-02-01 20:12:00,,0824.7,5.03,0.00,25.6,24.4,00.0,34.4,27.4,06.9,0000.0,0010.43,0004.46,0003.85
2023-02-01 20:13:00,,0824.7,4.98,0.00,25.6,24.4,00.0,34.4,27.4,06.9,0000.0,0010.17,0004.47,0003.87
2023-02-01 20:14:00,,0824.7,5.02,0.00,25.6,24.4,00.0,34.4,27.4,06.8,0000.0,0010.13,0004.45,0003.85
2023-02-01 20:15:00,,0824.7,5.00,0.00,25.6,24.4,00.0,34.4,27.4,07.1,0000.0,0010.02,0004.41,0003.84
2023-02-01 20:16:00,,0824.7,4.99,0.00,25.7,24.4,00.0,34.4,27.4,07.3,0000.0,0009.60,0004.46,0003.90
2023-02-01 20:17:00,,0824.7,4.97,0.00,25.7,24.4,00.0,34.4,27.4,07.5,0000.0,0009.68,0004.54,0003.99
2023-02-01 20:18:00,,0824.7,4.98,0.00,25.7,24.4,00.0,34.4,27.4,07.3,0000.0,0009.84,0004.71,0004.11
2023-02-01 20:19:00,,0824.7,4.98,0.00,25.7,24.4,00.0,34.4,27.4,07.2,0000.0,0009.88,0004.76,0004.16
2023-02-01 20:20:00,,0824.7,5.00,0.00,25.7,24.4,00.0,34.4,27.5,07.1,0000.0,0010.05,0004.74,0004.15
2023-02-01 20:21:00,,0824.7,4.99,0.00,25.7,24.4,00.0,34.5,27.4,07.1,0000.0,0009.31,0004.68,0004.12
2023-02-01 20:22:00,,0824.7,5.00,0.00,25.7,24.5,00.0,34.5,27.5,07.4,0000.0,0009.38,0004.76,0004.21
2023-02-01 20:23:00,,0824.7,5.01,0.00,25.7,24.5,00.0,34.5,27.5,07.3,0000.0,0010.37,0004.95,0004.38
2023-02-01 20:24:00,,0824.8,4.99,0.00,25.7,24.5,00.0,34.5,27.5,07.5,0000.0,0010.66,0005.15,0004.56
2023-02-01 20:25:00,,0824.8,5.01,0.00,25.7,24.5,00.0,34.5,27.5,07.9,0000.0,0011.16,0005.40,0004.79
2023-02-01 20:26:00,,0824.8,5.03,0.00,25.7,24.5,00.0,34.5,27.5,08.2,0000.0,0012.13,0005.68,0005.02
2023-02-01 20:27:00,,0824.8,5.02,0.00,25.8,24.5,00.0,34.5,27.6,08.0,0000.0,0012.67,0005.96,0005.24
2023-02-01 20:28:00,,0824.7,5.03,0.00,25.8,24.6,00.0,34.5,27.6,07.9,0000.0,0013.45,0006.22,0005.45
2023-02-01 20:29:00,,0824.7,5.00,0.00,25.8,24.6,00.0,34.5,27.6,07.4,0000.0,0014.54,0006.47,0005.70
2023-02-01 20:30:00,,0824.7,5.01,0.00,25.8,24.6,00.0,34.5,27.6,07.6,0000.0,0015.13,0006.83,0006.00
2023-02-01 20:31:00,,0824.7,5.01,0.00,25.8,24.6,00.0,34.5,27.6,07.8,0000.0,0016.02,0007.26,0006.34
2023-02-01 20:32:00,,0824.7,4.99,0.00,25.8,24.7,00.0,34.6,27.6,07.6,0000.0,0017.13,0007.66,0006.70
2023-02-01 20:33:00,,0824.8,4.99,0.00,25.8,24.7,00.0,34.6,27.6,07.7,0000.0,0017.98,0008.01,0006.97
2023-02-01 20:34:00,,0824.8,5.01,0.00,25.9,24.7,00.0,34.6,27.7,07.6,0000.0,0017.75,0008.32,0007.22
2023-02-01 20:35:00,,0824.7,4.97,0.00,25.9,24.7,00.0,34.6,27.7,07.7,0000.0,0018.29,0008.64,0007.47
2023-02-01 20:36:00,,0824.8,4.99,0.00,25.9,24.7,00.0,34.6,27.7,07.8,0000.0,0018.57,0008.93,0007.71
2023-02-01 20:37:00,,0824.8,4.97,0.00,25.9,24.7,00.0,34.6,27.7,08.0,0000.0,0018.37,0009.11,0007.90
2023-02-01 20:38:00,,0824.8,5.00,0.00,25.9,24.8,00.0,34.6,27.7,08.1,0000.0,0018.86,0009.25,0008.06
2023-02-01 20:39:00,,0824.8,5.00,0.00,25.9,24.8,00.0,34.6,27.8,08.1,0000.0,0019.50,0009.32,0008.15
2023-02-01 20:40:00,,0824.8,5.01,0.00,26.0,24.8,00.0,34.7,27.7,08.1,0000.0,0018.66,0009.36,0008.18
2023-02-01 20:41:00,,0824.8,5.01,0.00,26.0,24.8,00.0,34.7,27.8,08.0,0000.0,0018.46,0009.34,0008.17
2023-02-01 20:42:00,,0824.7,5.01,0.00,26.0,24.8,00.0,34.7,27.8,07.9,0000.0,0017.89,0009.25,0008.10
2023-02-01 20:43:00,,0824.7,4.98,0.00,26.0,24.9,00.0,34.7,27.8,08.1,0000.0,0017.21,0009.18,0008.07
2023-02-01 20:44:00,,0824.8,5.04,0.00,26.0,24.9,00.0,34.7,27.8,08.3,0000.0,0016.25,0009.06,0008.03
2023-02-01 20:45:00,,0824.8,4.98,0.00,26.0,24.9,00.0,34.7,27.8,08.0,0000.0,0016.27,0009.02,0008.01
2023-02-01 20:46:00,,0824.8,5.00,0.00,26.0,24.9,00.0,34.7,27.8,08.1,0000.7,0017.09,0009.01,0007.96
2023-02-01 20:47:00,,0824.8,5.02,0.00,26.1,24.9,00.0,34.8,27.9,08.2,0000.0,0017.87,0009.03,0007.98
2023-02-01 20:48:00,,0824.7,5.02,0.00,26.1,24.9,00.0,34.8,27.9,08.4,0000.0,0018.10,0009.19,0008.08
2023-02-01 20:49:00,,0824.7,4.97,0.00,26.1,24.9,00.0,34.8,27.9,08.0,0000.5,0018.46,0009.50,0008.33
2023-02-01 20:50:00,,0824.7,5.01,0.00,26.1,24.9,00.0,34.8,27.9,08.3,0002.1,0018.10,0009.90,0008.63
2023-02-01 20:51:00,,0824.7,4.97,0.00,26.1,25.0,00.0,34.8,27.9,08.4,0002.5,0018.81,0010.33,0009.04
2023-02-01 20:52:00,,0824.8,5.05,0.00,26.1,25.0,00.0,34.8,27.9,08.3,0002.3,0020.13,0010.88,0009.49
2023-02-01 20:53:00,,0824.8,5.01,0.00,26.1,25.0,00.0,34.8,27.9,08.3,0000.9,0021.02,0011.51,0010.02
2023-02-01 20:54:00,,0824.8,4.95,0.00,26.2,25.0,00.0,34.9,28.0,08.2,0000.5,0021.95,0012.21,0010.60
2023-02-01 20:55:00,,0824.8,5.03,0.00,26.2,25.0,00.0,34.9,28.0,08.1,0000.9,0022.96,0012.93,0011.20
2023-02-01 20:56:00,,0824.8,5.03,0.00,26.2,25.0,00.0,34.9,28.0,08.1,0000.8,0023.56,0013.53,0011.74
2023-02-01 20:57:00,,0824.8,5.02,0.00,26.2,25.0,00.0,34.9,28.0,08.1,0001.1,0023.42,0014.07,0012.26
2023-02-01 20:58:00,,0824.8,5.01,0.00,26.2,25.1,00.0,34.9,28.0,08.2,0001.2,0023.39,0014.50,0012.67
2023-02-01 20:59:00,,0824.8,4.98,0.00,26.2,25.1,00.0,34.9,28.0,08.1,0001.3,0024.50,0014.83,0012.97
